KUIPER-00061

导读

KUIPER-00061是美国亚马逊柯伊伯(Project Kuiper)低轨互联网星座的成员卫星,于2025年6月23日发射,是柯伊伯星座大规模部署阶段的组网卫星之一。该星座计划发射3236颗卫星,旨在为全球尤其是偏远地区提供高速低延迟的卫星互联网服务,并与亚马逊云服务深度整合,提供云通信一体化解决方案。按FCC要求,柯伊伯星座需在2026年7月前完成半数卫星发射,KUIPER-00061的发射是亚马逊实现星座组网目标的重要一步。

基本信息
目录编号:
64521
目录名称:
KUIPER-00061
国际标识:
2025-134X
轨道中心:
EARTH
卫星名称:
KUIPER-00061
卫星全名:
KUIPER-00061
卫星状态:
在轨 (已飞行446 天)
发射日期:
2025-06-23 UTC
国别 :
美国 (US)
星等 :
--
该卫星已列入 空间交会检测服务 Space Conjunction Data Service (SCDS) ,当前飞行风险评估等级: 无高风险
轨道信息
数据来源 国际轨道数据 AOE轨道数据
星历时间 2026-09-11T09:44:33+0800
1天前
查看轨道信息
2026-09-10T21:00:00+0800
1天前
查看轨道信息
半长轴 7007.69km 7007.692km
偏心率 0.0001201 0.0000972
轨道倾角 51.902° 51.899°
近地点辐角 112.586° 78.661°
升交点赤经 128.339° 130.691°
平近点角 247.523° 331.024°
近地点 628.711km 628.873km
远地点 630.395km 630.237km
周期 97.302分钟 97.302分钟
每日圈数 14.799276 14.79927
详细信息
使用方式:
暂无
2D轨道图
3D轨道图
轨道高度分析图
轨道倾角分析图
轨道综合分析图
查看轨道综合分析图
与全量物体交会距离演化趋势
与全量物体交会风险概率演化趋势